Showing default

DSN-3, 61733

Orbit data source: Space-Track

DSN-3, 61733 is a payload satellite owned by DSN Corp. (JP) in GEO that was launched on Mon, 04 Nov 2024 UTC via a H3-22S launch vehicle from the Tanegashima Space Center (TNSTA). Payloads include a variety of satellites, spacecraft, and rockets equipped with specific instruments for various scientific and technological missions. These include communications satellites like Starlink; space stations such as the ISS; scientific satellites like the Hubble; Earth observation satellites from companies like Planet Labs, Umbra, and HawkEye 360; GPS; miniature CubeSats for education and research; and military/defense satellites.

Not visible in the next 10 days
DSN-3 details
Identifier
61733, 2024-198A
Orbit
GEO
Last TLE update12 hours ago
Origin
Flag of JPDSN Corp. (JP / JPN)
ManufacturerMELCO/NECST
MissionOperational spacecraft
Bus & MotorDS-2000, R-4D
Mass5,000 kg wet, 2,500 kg dry
Launch date (UTC)
2024-11-04 (2 months ago)
Launch vehicle
H3-22S
Launch site
Tanegashima Space Center (TNSTA)
Object type
Payload
Rocket body
Debris
Shape & HBRUnknown
Radar Cross SectionLarge (>1 m²)

Expand to show TLE details & history

TLE from 12 hours ago
0 DSN-3
1 61733U 24198A   24360.98636758 -.00000223  00000-0  00000+0 0  9998
2 61733   0.0184   2.3618 0001176  71.6689 159.9945  1.00272439   557
Epoch: 2024-12-25T23:40Z
Definitive object data (Epoch: 2024-12-25T23:40:22.158Z)
Latitude-0.03274°
Longitude143.95798°
Altitude35,790.58 km
Speed3.074 km/s
True Right ascension15h 36m 05s
True Declination0° 01' 58"
Sunlit
Object was in daylight at TLE epoch
Visualization TLE readout
Latitude0.03249°
Longitude-38.08666°
Altitude35,781.332 km
Speed3.075 km/s
Apparent Right ascension03h 04m 07s
Apparent Declination-5° 14' 15"
Sunlit
Object is in daylight
Visualization observer readout
Local Sidereal Time10:51:38
Azimuth283.845° WNW
Elevation-23.823°
Doppler factor1
Orbital elements
Apogee altitude35,792.441 km
Perigee altitude35,782.523 km
Semi-major axis42,165.619 km
Eccentricity0.0001176
Inclination0.0184°
RAAN2.3618°
Arg. of periapsis71.6689°
True anomaly159.99911°
Mean anomaly159.9945°
Eccentric anomaly159.9968°
Mean motion0.25067 °/min
BSTARUnknown
Orbital period1436.14 mins
Loading historical data...
61733 neighbors
Authenticating...
Loading maneuver chart data...
Loading historical data...
Loading historical data...
Loading historical data...
Loading historical data...
Loading historical data...
Loading historical data...
Loading historical data...
Other satellites on launch #198 in the year 2024 (2024-11-04 UTC)

DSN-3 Visibility forecast

Observer location: undefined°, undefined

DSN-3 is not visible in the next 10 days
Span
Click to sort rows by Start time (UTC) header in descending order
Start Az.
Max El. time (UTC)
Max El. Az.
Max El.
End time (UTC)
End Az.
|